Wetterdaten: Montag, 07.09.2015
Datum Zeit Temp. A. Feuchte A. Luftdruck Regen Wind Richtung Richtung Sonnenschein ET UV Solar Taupunkt Windchill Windben Empfang
07.09.2015 00:00 10,6 C 72 % 1024,2 hPa 0,0 l/m 0,7 km/h (0 Bft) N-NO 22 0 min 0,000 mm 0,0 UV-I 0 W/m 5,8 C 10,6 C 4,0 km/h (1 Bft) 0,00 %
07.09.2015 00:05 10,6 C 72 % 1024,1 hPa 0,0 l/m 1,4 km/h (1 Bft) NW 321 0 min 0,000 mm 0,0 UV-I 0 W/m 5,8 C 10,6 C 4,0 km/h (1 Bft) 0,00 %
07.09.2015 00:10 10,6 C 72 % 1024,2 hPa 0,0 l/m 0,0 km/h (0 Bft) O-NO 69 0 min 0,000 mm 0,0 UV-I 0 W/m 5,8 C 10,6 C 0,0 km/h (0 Bft) 0,00 %
07.09.2015 00:15 10,6 C 72 % 1024,1 hPa 0,0 l/m 1,4 km/h (1 Bft) O-SO 122 0 min 0,000 mm 0,0 UV-I 0 W/m 5,8 C 10,6 C 4,0 km/h (1 Bft) 0,00 %
07.09.2015 00:20 10,6 C 72 % 1024,1 hPa 0,0 l/m 4,3 km/h (1 Bft) W-SW 256 0 min 0,000 mm 0,0 UV-I 0 W/m 5,8 C 10,6 C 7,9 km/h (2 Bft) 0,00 %
07.09.2015 00:25 10,6 C 72 % 1024,2 hPa 0,0 l/m 0,4 km/h (0 Bft) N-NW 345 0 min 0,000 mm 0,0 UV-I 0 W/m 5,8 C 10,6 C 4,0 km/h (1 Bft) 0,00 %
07.09.2015 00:30 10,6 C 72 % 1024,3 hPa 0,0 l/m 0,4 km/h (0 Bft) O 81 0 min 0,000 mm 0,0 UV-I 0 W/m 5,8 C 10,6 C 4,0 km/h (1 Bft) 0,00 %
07.09.2015 00:35 10,6 C 72 % 1024,3 hPa 0,0 l/m 0,4 km/h (0 Bft) O-NO 66 0 min 0,000 mm 0,0 UV-I 0 W/m 5,8 C 10,6 C 4,0 km/h (1 Bft) 0,00 %
07.09.2015 00:40 10,6 C 72 % 1024,3 hPa 0,0 l/m 1,8 km/h (1 Bft) O 85 0 min 0,000 mm 0,0 UV-I 0 W/m 5,8 C 10,6 C 4,0 km/h (1 Bft) 0,00 %
07.09.2015 00:45 10,6 C 71 % 1024,4 hPa 0,0 l/m 7,2 km/h (2 Bft) SW 223 0 min 0,000 mm 0,0 UV-I 0 W/m 5,6 C 10,0 C 11,9 km/h (2 Bft) 0,00 %
07.09.2015 00:50 10,6 C 71 % 1024,3 hPa 0,0 l/m 0,7 km/h (0 Bft) N 357 0 min 0,000 mm 0,0 UV-I 0 W/m 5,6 C 10,6 C 4,0 km/h (1 Bft) 0,00 %
07.09.2015 00:55 10,6 C 72 % 1024,1 hPa 0,0 l/m 0,4 km/h (0 Bft) N-NO 25 0 min 0,000 mm 0,0 UV-I 0 W/m 5,8 C 10,6 C 4,0 km/h (1 Bft) 0,00 %
07.09.2015 01:00 10,6 C 71 % 1024,2 hPa 0,0 l/m 6,5 km/h (2 Bft) W-NW 287 0 min 0,000 mm 0,0 UV-I 0 W/m 5,6 C 10,6 C 7,9 km/h (2 Bft) 0,00 %
07.09.2015 01:05 10,6 C 72 % 1024,2 hPa 0,0 l/m 0,0 km/h (0 Bft) N 357 0 min 0,000 mm 0,0 UV-I 0 W/m 5,8 C 10,6 C 0,0 km/h (0 Bft) 0,00 %
07.09.2015 01:10 10,6 C 72 % 1024,2 hPa 0,0 l/m 5,8 km/h (2 Bft) N-NW 345 0 min 0,000 mm 0,0 UV-I 0 W/m 5,8 C 10,6 C 7,9 km/h (2 Bft) 0,00 %
07.09.2015 01:15 10,6 C 72 % 1024,2 hPa 0,0 l/m 0,7 km/h (0 Bft) NW 305 0 min 0,000 mm 0,0 UV-I 0 W/m 5,8 C 10,6 C 4,0 km/h (1 Bft) 0,00 %
07.09.2015 01:20 10,5 C 72 % 1024,2 hPa 0,0 l/m 0,0 km/h (0 Bft) NW 315 0 min 0,000 mm 0,0 UV-I 0 W/m 5,7 C 10,5 C 0,0 km/h (0 Bft) 0,00 %
07.09.2015 01:25 10,5 C 72 % 1024,2 hPa 0,0 l/m 0,0 km/h (0 Bft) NO 40 0 min 0,000 mm 0,0 UV-I 0 W/m 5,7 C 10,5 C 0,0 km/h (0 Bft) 0,00 %
07.09.2015 01:30 10,4 C 73 % 1024,3 hPa 0,0 l/m 8,3 km/h (2 Bft) NW 307 0 min 0,000 mm 0,0 UV-I 0 W/m 5,8 C 9,1 C 11,9 km/h (2 Bft) 0,00 %
07.09.2015 01:35 10,4 C 73 % 1024,2 hPa 0,0 l/m 5,4 km/h (1 Bft) W-SW 255 0 min 0,000 mm 0,0 UV-I 0 W/m 5,8 C 10,4 C 7,9 km/h (2 Bft) 0,00 %
07.09.2015 01:40 10,4 C 72 % 1024,1 hPa 0,0 l/m 8,3 km/h (2 Bft) W-SW 255 0 min 0,000 mm 0,0 UV-I 0 W/m 5,6 C 9,1 C 11,9 km/h (2 Bft) 0,00 %
07.09.2015 01:45 10,4 C 72 % 1024,1 hPa 0,0 l/m 0,7 km/h (0 Bft) S-SW 195 0 min 0,000 mm 0,0 UV-I 0 W/m 5,6 C 10,4 C 4,0 km/h (1 Bft) 0,00 %
07.09.2015 01:50 10,4 C 72 % 1023,9 hPa 0,0 l/m 4,0 km/h (1 Bft) W-SW 253 0 min 0,000 mm 0,0 UV-I 0 W/m 5,6 C 10,4 C 7,9 km/h (2 Bft) 0,00 %
07.09.2015 01:55 10,4 C 72 % 1024,0 hPa 0,0 l/m 0,7 km/h (0 Bft) W-SW 252 0 min 0,000 mm 0,0 UV-I 0 W/m 5,6 C 10,4 C 4,0 km/h (1 Bft) 0,00 %
07.09.2015 02:00 10,3 C 73 % 1024,2 hPa 0,0 l/m 6,5 km/h (2 Bft) W-SW 251 0 min 0,000 mm 0,0 UV-I 0 W/m 5,7 C 10,3 C 7,9 km/h (2 Bft) 0,00 %
07.09.2015 02:05 10,3 C 72 % 1024,0 hPa 0,0 l/m 5,4 km/h (1 Bft) W-SW 255 0 min 0,000 mm 0,0 UV-I 0 W/m 5,5 C 10,3 C 7,9 km/h (2 Bft) 0,00 %
07.09.2015 02:10 10,3 C 72 % 1023,9 hPa 0,0 l/m 1,8 km/h (1 Bft) NW 320 0 min 0,000 mm 0,0 UV-I 0 W/m 5,5 C 10,3 C 7,9 km/h (2 Bft) 0,00 %
07.09.2015 02:15 10,2 C 73 % 1024,0 hPa 0,0 l/m 0,0 km/h (0 Bft) W-SW 256 0 min 0,000 mm 0,0 UV-I 0 W/m 5,6 C 10,2 C 0,0 km/h (0 Bft) 0,00 %
07.09.2015 02:20 10,2 C 73 % 1024,0 hPa 0,0 l/m 0,4 km/h (0 Bft) N-NO 23 0 min 0,000 mm 0,0 UV-I 0 W/m 5,6 C 10,2 C 4,0 km/h (1 Bft) 0,00 %
07.09.2015 02:25 10,1 C 73 % 1023,9 hPa 0,0 l/m 0,4 km/h (0 Bft) NW 320 0 min 0,000 mm 0,0 UV-I 0 W/m 5,5 C 10,1 C 4,0 km/h (1 Bft) 0,00 %
07.09.2015 02:30 10,1 C 73 % 1023,9 hPa 0,0 l/m 3,2 km/h (1 Bft) SO 141 0 min 0,000 mm 0,0 UV-I 0 W/m 5,5 C 10,1 C 7,9 km/h (2 Bft) 0,00 %
07.09.2015 02:35 10,0 C 73 % 1023,8 hPa 0,0 l/m 0,0 km/h (0 Bft) N 356 0 min 0,000 mm 0,0 UV-I 0 W/m 5,4 C 10,0 C 0,0 km/h (0 Bft) 0,00 %
07.09.2015 02:40 10,0 C 74 % 1023,8 hPa 0,0 l/m 3,2 km/h (1 Bft) NW 326 0 min 0,000 mm 0,0 UV-I 0 W/m 5,6 C 10,0 C 4,0 km/h (1 Bft) 0,00 %
07.09.2015 02:45 9,9 C 74 % 1023,7 hPa 0,0 l/m 1,4 km/h (1 Bft) O 89 0 min 0,000 mm 0,0 UV-I 0 W/m 5,5 C 9,9 C 4,0 km/h (1 Bft) 0,00 %
07.09.2015 02:50 9,9 C 74 % 1023,9 hPa 0,0 l/m 0,4 km/h (0 Bft) N-NO 30 0 min 0,000 mm 0,0 UV-I 0 W/m 5,5 C 9,9 C 4,0 km/h (1 Bft) 0,00 %
07.09.2015 02:55 9,8 C 74 % 1023,8 hPa 0,0 l/m 1,4 km/h (1 Bft) N 357 0 min 0,000 mm 0,0 UV-I 0 W/m 5,4 C 9,8 C 7,9 km/h (2 Bft) 0,00 %
07.09.2015 03:00 9,8 C 74 % 1023,8 hPa 0,0 l/m 1,4 km/h (1 Bft) W 264 0 min 0,000 mm 0,0 UV-I 0 W/m 5,4 C 9,8 C 4,0 km/h (1 Bft) 0,00 %
07.09.2015 03:05 9,7 C 74 % 1023,8 hPa 0,0 l/m 0,0 km/h (0 Bft) NW 323 0 min 0,000 mm 0,0 UV-I 0 W/m 5,3 C 9,7 C 0,0 km/h (0 Bft) 0,00 %
07.09.2015 03:10 9,6 C 74 % 1023,5 hPa 0,0 l/m 6,5 km/h (2 Bft) S-SW 197 0 min 0,000 mm 0,0 UV-I 0 W/m 5,2 C 9,6 C 7,9 km/h (2 Bft) 0,00 %
07.09.2015 03:15 9,5 C 75 % 1023,7 hPa 0,0 l/m 4,0 km/h (1 Bft) N-NO 12 0 min 0,000 mm 0,0 UV-I 0 W/m 5,3 C 9,5 C 7,9 km/h (2 Bft) 0,00 %
07.09.2015 03:20 9,4 C 75 % 1023,8 hPa 0,0 l/m 1,8 km/h (1 Bft) W-NW 297 0 min 0,000 mm 0,0 UV-I 0 W/m 5,2 C 9,4 C 4,0 km/h (1 Bft) 0,00 %
07.09.2015 03:25 9,3 C 75 % 1023,7 hPa 0,0 l/m 4,3 km/h (1 Bft) W-SW 256 0 min 0,000 mm 0,0 UV-I 0 W/m 5,1 C 9,3 C 7,9 km/h (2 Bft) 0,00 %
07.09.2015 03:30 9,2 C 75 % 1023,7 hPa 0,0 l/m 4,0 km/h (1 Bft) W-SW 254 0 min 0,000 mm 0,0 UV-I 0 W/m 5,0 C 9,2 C 7,9 km/h (2 Bft) 0,00 %
07.09.2015 03:35 9,1 C 75 % 1023,8 hPa 0,0 l/m 0,4 km/h (0 Bft) O-NO 62 0 min 0,000 mm 0,0 UV-I 0 W/m 4,9 C 9,1 C 4,0 km/h (1 Bft) 0,00 %
07.09.2015 03:40 9,0 C 74 % 1023,6 hPa 0,0 l/m 0,7 km/h (0 Bft) O 94 0 min 0,000 mm 0,0 UV-I 0 W/m 4,6 C 9,0 C 4,0 km/h (1 Bft) 0,00 %
07.09.2015 03:45 9,0 C 74 % 1023,7 hPa 0,0 l/m 4,0 km/h (1 Bft) W-NW 295 0 min 0,000 mm 0,0 UV-I 0 W/m 4,6 C 9,0 C 7,9 km/h (2 Bft) 0,00 %
07.09.2015 03:50 9,0 C 74 % 1023,7 hPa 0,0 l/m 4,0 km/h (1 Bft) W-NW 283 0 min 0,000 mm 0,0 UV-I 0 W/m 4,6 C 9,0 C 7,9 km/h (2 Bft) 0,00 %
07.09.2015 03:55 9,0 C 74 % 1023,5 hPa 0,0 l/m 0,7 km/h (0 Bft) O-SO 123 0 min 0,000 mm 0,0 UV-I 0 W/m 4,6 C 9,0 C 4,0 km/h (1 Bft) 0,00 %
07.09.2015 04:00 9,0 C 74 % 1023,6 hPa 0,0 l/m 0,4 km/h (0 Bft) N-NW 346 0 min 0,000 mm 0,0 UV-I 0 W/m 4,6 C 9,0 C 4,0 km/h (1 Bft) 0,00 %
07.09.2015 04:05 9,0 C 74 % 1023,5 hPa 0,0 l/m 0,4 km/h (0 Bft) NW 316 0 min 0,000 mm 0,0 UV-I 0 W/m 4,6 C 9,0 C 4,0 km/h (1 Bft) 0,00 %
07.09.2015 04:10 9,0 C 74 % 1023,6 hPa 0,0 l/m 1,8 km/h (1 Bft) N 355 0 min 0,000 mm 0,0 UV-I 0 W/m 4,6 C 9,0 C 4,0 km/h (1 Bft) 0,00 %
07.09.2015 04:15 9,0 C 74 % 1023,5 hPa 0,0 l/m 0,0 km/h (0 Bft) N-NO 31 0 min 0,000 mm 0,0 UV-I 0 W/m 4,6 C 9,0 C 0,0 km/h (0 Bft) 0,00 %
07.09.2015 04:20 9,0 C 74 % 1023,6 hPa 0,0 l/m 0,7 km/h (0 Bft) N-NW 333 0 min 0,000 mm 0,0 UV-I 0 W/m 4,6 C 9,0 C 4,0 km/h (1 Bft) 0,00 %
07.09.2015 04:25 9,0 C 74 % 1023,5 hPa 0,0 l/m 2,9 km/h (1 Bft) NO 52 0 min 0,000 mm 0,0 UV-I 0 W/m 4,6 C 9,0 C 4,0 km/h (1 Bft) 0,00 %
07.09.2015 04:30 9,0 C 75 % 1023,5 hPa 0,0 l/m 1,4 km/h (1 Bft) W 274 0 min 0,000 mm 0,0 UV-I 0 W/m 4,8 C 9,0 C 4,0 km/h (1 Bft) 0,00 %
07.09.2015 04:35 8,9 C 76 % 1023,5 hPa 0,0 l/m 0,7 km/h (0 Bft) O-NO 63 0 min 0,000 mm 0,0 UV-I 0 W/m 4,9 C 8,9 C 4,0 km/h (1 Bft) 0,00 %
07.09.2015 04:40 8,8 C 76 % 1023,5 hPa 0,0 l/m 0,4 km/h (0 Bft) N 356 0 min 0,000 mm 0,0 UV-I 0 W/m 4,8 C 8,8 C 4,0 km/h (1 Bft) 0,00 %
07.09.2015 04:45 8,8 C 76 % 1023,4 hPa 0,0 l/m 1,4 km/h (1 Bft) W 276 0 min 0,000 mm 0,0 UV-I 0 W/m 4,8 C 8,8 C 4,0 km/h (1 Bft) 0,00 %
07.09.2015 04:50 8,7 C 76 % 1023,5 hPa 0,0 l/m 0,0 km/h (0 Bft) O-NO 70 0 min 0,000 mm 0,0 UV-I 0 W/m 4,7 C 8,7 C 0,0 km/h (0 Bft) 0,00 %
07.09.2015 04:55 8,7 C 75 % 1023,5 hPa 0,0 l/m 3,2 km/h (1 Bft) W-SW 256 0 min 0,000 mm 0,0 UV-I 0 W/m 4,5 C 8,7 C 7,9 km/h (2 Bft) 0,00 %
07.09.2015 05:00 8,8 C 75 % 1023,5 hPa 0,0 l/m 3,2 km/h (1 Bft) NW 323 0 min 0,000 mm 0,0 UV-I 0 W/m 4,6 C 8,8 C 4,0 km/h (1 Bft) 0,00 %
07.09.2015 05:05 8,8 C 75 % 1023,5 hPa 0,0 l/m 0,7 km/h (0 Bft) N 355 0 min 0,000 mm 0,0 UV-I 0 W/m 4,6 C 8,8 C 4,0 km/h (1 Bft) 0,00 %
07.09.2015 05:10 8,8 C 75 % 1023,6 hPa 0,0 l/m 6,8 km/h (2 Bft) W-SW 256 0 min 0,000 mm 0,0 UV-I 0 W/m 4,6 C 8,5 C 7,9 km/h (2 Bft) 0,00 %
07.09.2015 05:15 8,9 C 73 % 1023,6 hPa 0,0 l/m 0,7 km/h (0 Bft) N-NW 347 0 min 0,000 mm 0,0 UV-I 0 W/m 4,3 C 8,9 C 4,0 km/h (1 Bft) 0,00 %
07.09.2015 05:20 8,9 C 73 % 1023,6 hPa 0,0 l/m 7,9 km/h (2 Bft) W 271 0 min 0,000 mm 0,0 UV-I 0 W/m 4,3 C 7,8 C 11,9 km/h (2 Bft) 0,00 %
07.09.2015 05:25 9,0 C 73 % 1023,6 hPa 0,0 l/m 0,0 km/h (0 Bft) NO 43 0 min 0,000 mm 0,0 UV-I 0 W/m 4,4 C 9,0 C 0,0 km/h (0 Bft) 0,00 %
07.09.2015 05:30 8,9 C 73 % 1023,5 hPa 0,0 l/m 4,7 km/h (1 Bft) O-NO 74 0 min 0,000 mm 0,0 UV-I 0 W/m 4,3 C 8,9 C 15,8 km/h (3 Bft) 0,00 %
07.09.2015 05:35 8,9 C 73 % 1023,5 hPa 0,0 l/m 1,8 km/h (1 Bft) N 354 0 min 0,000 mm 0,0 UV-I 0 W/m 4,3 C 8,9 C 4,0 km/h (1 Bft) 0,00 %
07.09.2015 05:40 9,0 C 73 % 1023,5 hPa 0,0 l/m 4,0 km/h (1 Bft) N-NO 23 0 min 0,000 mm 0,0 UV-I 0 W/m 4,4 C 9,0 C 7,9 km/h (2 Bft) 0,00 %
07.09.2015 05:45 9,0 C 73 % 1023,4 hPa 0,0 l/m 1,4 km/h (1 Bft) SO 128 0 min 0,000 mm 0,0 UV-I 0 W/m 4,4 C 9,0 C 4,0 km/h (1 Bft) 0,00 %
07.09.2015 05:50 9,0 C 73 % 1023,6 hPa 0,0 l/m 5,4 km/h (1 Bft) W-SW 256 0 min 0,000 mm 0,0 UV-I 0 W/m 4,4 C 9,0 C 7,9 km/h (2 Bft) 0,00 %
07.09.2015 05:55 8,9 C 75 % 1023,6 hPa 0,0 l/m 3,2 km/h (1 Bft) N-NW 343 0 min 0,000 mm 0,0 UV-I 0 W/m 4,7 C 8,9 C 4,0 km/h (1 Bft) 0,00 %
07.09.2015 06:00 8,9 C 74 % 1023,5 hPa 0,0 l/m 10,4 km/h (2 Bft) W-SW 256 0 min 0,000 mm 0,0 UV-I 0 W/m 4,5 C 6,1 C 11,9 km/h (2 Bft) 0,00 %
07.09.2015 06:05 8,8 C 74 % 1023,4 hPa 0,0 l/m 10,4 km/h (2 Bft) W 267 0 min 0,000 mm 0,0 UV-I 0 W/m 4,4 C 6,0 C 15,8 km/h (3 Bft) 0,00 %
07.09.2015 06:10 8,8 C 74 % 1023,4 hPa 0,0 l/m 0,0 km/h (0 Bft) N-NW 339 0 min 0,000 mm 0,0 UV-I 0 W/m 4,4 C 8,8 C 0,0 km/h (0 Bft) 0,00 %
07.09.2015 06:15 8,7 C 75 % 1023,5 hPa 0,0 l/m 0,7 km/h (0 Bft) N 11 0 min 0,000 mm 0,0 UV-I 0 W/m 4,5 C 8,7 C 4,0 km/h (1 Bft) 0,00 %
07.09.2015 06:20 8,6 C 76 % 1023,4 hPa 0,0 l/m 1,8 km/h (1 Bft) NW 319 0 min 0,000 mm 0,0 UV-I 0 W/m 4,6 C 8,6 C 4,0 km/h (1 Bft) 0,00 %
07.09.2015 06:25 8,5 C 76 % 1023,5 hPa 0,0 l/m 3,2 km/h (1 Bft) W-SW 258 0 min 0,000 mm 0,0 UV-I 0 W/m 4,5 C 8,5 C 7,9 km/h (2 Bft) 0,00 %
07.09.2015 06:30 8,3 C 77 % 1023,5 hPa 0,0 l/m 0,0 km/h (0 Bft) NO 39 0 min 0,000 mm 0,0 UV-I 0 W/m 4,5 C 8,3 C 0,0 km/h (0 Bft) 0,00 %
07.09.2015 06:35 8,2 C 78 % 1023,6 hPa 0,0 l/m 0,7 km/h (0 Bft) O-NO 60 0 min 0,000 mm 0,0 UV-I 0 W/m 4,6 C 8,2 C 4,0 km/h (1 Bft) 0,00 %
07.09.2015 06:40 8,0 C 80 % 1023,5 hPa 0,0 l/m 0,4 km/h (0 Bft) W-NW 291 0 min 0,000 mm 0,0 UV-I 4 W/m 4,8 C 8,0 C 4,0 km/h (1 Bft) 0,00 %
07.09.2015 06:45 7,8 C 81 % 1023,5 hPa 0,0 l/m 0,0 km/h (0 Bft) O 80 0 min 0,000 mm 0,0 UV-I 7 W/m 4,7 C 7,8 C 0,0 km/h (0 Bft) 0,00 %
07.09.2015 06:50 7,7 C 81 % 1023,3 hPa 0,0 l/m 0,4 km/h (0 Bft) SO 132 0 min 0,000 mm 0,0 UV-I 10 W/m 4,7 C 7,7 C 4,0 km/h (1 Bft) 0,00 %
07.09.2015 06:55 7,6 C 82 % 1023,3 hPa 0,0 l/m 0,0 km/h (0 Bft) NO 43 0 min 0,000 mm 0,0 UV-I 18 W/m 4,7 C 7,6 C 0,0 km/h (0 Bft) 0,00 %
07.09.2015 07:00 7,6 C 82 % 1023,5 hPa 0,0 l/m 0,0 km/h (0 Bft) N-NO 31 0 min 0,000 mm 0,0 UV-I 27 W/m 4,7 C 7,6 C 0,0 km/h (0 Bft) 0,00 %
07.09.2015 07:05 7,6 C 82 % 1023,6 hPa 0,0 l/m 0,0 km/h (0 Bft) N-NW 348 0 min 0,000 mm 0,0 UV-I 37 W/m 4,7 C 7,6 C 0,0 km/h (0 Bft) 0,00 %
07.09.2015 07:10 7,6 C 82 % 1023,6 hPa 0,0 l/m 0,4 km/h (0 Bft) O-NO 60 0 min 0,000 mm 0,0 UV-I 48 W/m 4,7 C 7,6 C 4,0 km/h (1 Bft) 0,00 %
07.09.2015 07:15 7,7 C 81 % 1023,4 hPa 0,0 l/m 1,4 km/h (1 Bft) N-NW 332 0 min 0,000 mm 0,0 UV-I 59 W/m 4,7 C 7,7 C 4,0 km/h (1 Bft) 0,00 %
07.09.2015 07:20 7,8 C 80 % 1023,6 hPa 0,0 l/m 4,7 km/h (1 Bft) W-SW 252 0 min 0,000 mm 0,0 UV-I 67 W/m 4,6 C 7,8 C 7,9 km/h (2 Bft) 0,00 %
07.09.2015 07:25 8,0 C 80 % 1023,6 hPa 0,0 l/m 4,7 km/h (1 Bft) NW 324 0 min 0,000 mm 0,0 UV-I 80 W/m 4,8 C 8,0 C 7,9 km/h (2 Bft) 0,00 %
07.09.2015 07:30 8,2 C 78 % 1023,7 hPa 0,0 l/m 0,0 km/h (0 Bft) O-NO 63 0 min 0,000 mm 0,0 UV-I 76 W/m 4,6 C 8,2 C 0,0 km/h (0 Bft) 0,00 %
07.09.2015 07:35 8,5 C 78 % 1023,5 hPa 0,0 l/m 0,4 km/h (0 Bft) W-NW 303 5 min 0,000 mm 0,0 UV-I 100 W/m 4,9 C 8,5 C 4,0 km/h (1 Bft) 0,00 %
07.09.2015 07:40 8,7 C 76 % 1023,7 hPa 0,0 l/m 0,0 km/h (0 Bft) NO 41 5 min 0,000 mm 0,0 UV-I 108 W/m 4,7 C 8,7 C 0,0 km/h (0 Bft) 0,00 %
07.09.2015 07:45 9,2 C 74 % 1023,6 hPa 0,0 l/m 1,4 km/h (1 Bft) NO 56 5 min 0,000 mm 1,0 UV-I 118 W/m 4,8 C 9,2 C 4,0 km/h (1 Bft) 0,00 %
07.09.2015 07:50 9,7 C 71 % 1023,5 hPa 0,0 l/m 0,0 km/h (0 Bft) NO 52 5 min 0,000 mm 1,0 UV-I 121 W/m 4,7 C 9,7 C 0,0 km/h (0 Bft) 0,00 %
07.09.2015 07:55 10,0 C 70 % 1023,4 hPa 0,0 l/m 1,8 km/h (1 Bft) N-NW 346 0 min 0,000 mm 1,0 UV-I 124 W/m 4,8 C 10,0 C 4,0 km/h (1 Bft) 0,00 %
07.09.2015 08:00 10,3 C 69 % 1023,5 hPa 0,0 l/m 10,4 km/h (2 Bft) W-NW 285 0 min 0,000 mm 1,0 UV-I 132 W/m 4,9 C 7,7 C 15,8 km/h (3 Bft) 0,00 %
07.09.2015 08:05 10,4 C 69 % 1023,5 hPa 0,0 l/m 1,4 km/h (1 Bft) NW 313 5 min 0,000 mm 1,0 UV-I 147 W/m 5,0 C 10,4 C 4,0 km/h (1 Bft) 0,00 %
07.09.2015 08:10 10,7 C 68 % 1023,5 hPa 0,0 l/m 1,8 km/h (1 Bft) O-NO 63 5 min 0,000 mm 1,0 UV-I 161 W/m 5,0 C 10,7 C 4,0 km/h (1 Bft) 0,00 %
07.09.2015 08:15 10,9 C 67 % 1023,6 hPa 0,0 l/m 7,9 km/h (2 Bft) S 175 5 min 0,000 mm 1,0 UV-I 173 W/m 5,0 C 9,9 C 11,9 km/h (2 Bft) 0,00 %
07.09.2015 08:20 11,1 C 67 % 1022,2 hPa 0,0 l/m 4,0 km/h (1 Bft) N 352 5 min 0,000 mm 1,0 UV-I 178 W/m 5,2 C 11,1 C 4,0 km/h (1 Bft) 0,00 %
07.09.2015 08:25 11,3 C 66 % 1022,5 hPa 0,0 l/m 7,2 km/h (2 Bft) N-NO 13 5 min 0,000 mm 1,0 UV-I 179 W/m 5,2 C 10,8 C 15,8 km/h (3 Bft) 0,00 %
07.09.2015 08:30 11,4 C 65 % 1022,5 hPa 0,0 l/m 5,8 km/h (2 Bft) N-NW 333 0 min 0,000 mm 1,0 UV-I 176 W/m 5,1 C 11,4 C 7,9 km/h (2 Bft) 0,00 %
07.09.2015 08:35 11,3 C 67 % 1022,5 hPa 0,0 l/m 0,7 km/h (0 Bft) N 351 5 min 0,000 mm 1,0 UV-I 190 W/m 5,4 C 11,3 C 4,0 km/h (1 Bft) 0,00 %
07.09.2015 08:40 11,4 C 67 % 1022,6 hPa 0,0 l/m 0,0 km/h (0 Bft) O-NO 63 5 min 0,000 mm 1,0 UV-I 216 W/m 5,5 C 11,4 C 0,0 km/h (0 Bft) 0,00 %
07.09.2015 08:45 11,8 C 64 % 1022,6 hPa 0,0 l/m 4,7 km/h (1 Bft) W-NW 284 5 min 0,000 mm 1,0 UV-I 212 W/m 5,2 C 11,8 C 7,9 km/h (2 Bft) 0,00 %
07.09.2015 08:50 12,2 C 66 % 1022,6 hPa 0,0 l/m 0,0 km/h (0 Bft) N-NO 20 5 min 0,000 mm 1,0 UV-I 212 W/m 6,0 C 12,2 C 0,0 km/h (0 Bft) 0,00 %
07.09.2015 08:55 12,5 C 64 % 1022,6 hPa 0,0 l/m 0,0 km/h (0 Bft) N-NW 343 0 min 0,000 mm 1,0 UV-I 213 W/m 5,9 C 12,5 C 0,0 km/h (0 Bft) 0,00 %
07.09.2015 09:00 12,8 C 63 % 1022,5 hPa 0,0 l/m 8,3 km/h (2 Bft) W-SW 256 0 min 0,000 mm 1,0 UV-I 212 W/m 5,9 C 11,6 C 11,9 km/h (2 Bft) 0,00 %
07.09.2015 09:05 12,7 C 64 % 1022,5 hPa 0,0 l/m 3,2 km/h (1 Bft) N-NO 22 5 min 0,000 mm 1,0 UV-I 259 W/m 6,1 C 12,7 C 7,9 km/h (2 Bft) 0,00 %
07.09.2015 09:10 12,7 C 63 % 1022,4 hPa 0,0 l/m 10,4 km/h (2 Bft) NW 311 5 min 0,000 mm 1,0 UV-I 262 W/m 5,8 C 10,4 C 11,9 km/h (2 Bft) 0,00 %
07.09.2015 09:15 12,8 C 63 % 1022,5 hPa 0,0 l/m 3,2 km/h (1 Bft) W-SW 255 0 min 0,000 mm 1,0 UV-I 229 W/m 5,9 C 12,8 C 7,9 km/h (2 Bft) 0,00 %
07.09.2015 09:20 12,7 C 64 % 1022,6 hPa 0,0 l/m 6,8 km/h (2 Bft) N 357 0 min 0,000 mm 1,0 UV-I 219 W/m 6,1 C 12,5 C 11,9 km/h (2 Bft) 0,00 %
07.09.2015 09:25 12,6 C 64 % 1022,7 hPa 0,0 l/m 2,2 km/h (1 Bft) NO 42 0 min 0,000 mm 1,0 UV-I 228 W/m 6,0 C 12,6 C 4,0 km/h (1 Bft) 0,00 %
07.09.2015 09:30 12,3 C 64 % 1022,6 hPa 0,0 l/m 9,0 km/h (2 Bft) W-SW 256 0 min 0,000 mm 1,0 UV-I 227 W/m 5,7 C 10,7 C 11,9 km/h (2 Bft) 0,00 %
07.09.2015 09:35 12,2 C 65 % 1022,6 hPa 0,0 l/m 2,9 km/h (1 Bft) W-SW 256 0 min 0,000 mm 1,0 UV-I 212 W/m 5,8 C 12,2 C 7,9 km/h (2 Bft) 0,00 %
07.09.2015 09:40 12,2 C 65 % 1022,6 hPa 0,0 l/m 4,0 km/h (1 Bft) W-NW 299 0 min 0,000 mm 1,0 UV-I 217 W/m 5,8 C 12,2 C 7,9 km/h (2 Bft) 0,00 %
07.09.2015 09:45 12,2 C 64 % 1022,7 hPa 0,0 l/m 1,4 km/h (1 Bft) W 271 0 min 0,000 mm 1,0 UV-I 228 W/m 5,6 C 12,2 C 4,0 km/h (1 Bft) 0,00 %
07.09.2015 09:50 12,3 C 63 % 1022,8 hPa 0,0 l/m 2,2 km/h (1 Bft) N 353 0 min 0,000 mm 1,0 UV-I 228 W/m 5,5 C 12,3 C 4,0 km/h (1 Bft) 0,00 %
07.09.2015 09:55 12,3 C 65 % 1022,8 hPa 0,0 l/m 0,0 km/h (0 Bft) NO 55 0 min 0,000 mm 1,0 UV-I 282 W/m 5,9 C 12,3 C 0,0 km/h (0 Bft) 0,00 %
07.09.2015 10:00 12,3 C 64 % 1022,8 hPa 0,0 l/m 4,0 km/h (1 Bft) W-SW 255 0 min 0,000 mm 1,0 UV-I 240 W/m 5,7 C 12,3 C 7,9 km/h (2 Bft) 0,00 %
07.09.2015 10:05 12,5 C 64 % 1022,8 hPa 0,0 l/m 8,3 km/h (2 Bft) W-SW 252 0 min 0,000 mm 1,0 UV-I 264 W/m 5,9 C 11,3 C 11,9 km/h (2 Bft) 0,00 %
07.09.2015 10:10 12,5 C 64 % 1023,0 hPa 0,0 l/m 0,0 km/h (0 Bft) N-NO 12 0 min 0,000 mm 1,0 UV-I 159 W/m 5,9 C 12,5 C 0,0 km/h (0 Bft) 0,00 %
07.09.2015 10:15 12,6 C 64 % 1023,1 hPa 0,0 l/m 0,0 km/h (0 Bft) N 352 0 min 0,000 mm 1,0 UV-I 174 W/m 6,0 C 12,6 C 0,0 km/h (0 Bft) 0,00 %
07.09.2015 10:20 12,6 C 63 % 1023,1 hPa 0,0 l/m 4,3 km/h (1 Bft) W-NW 291 0 min 0,000 mm 1,0 UV-I 161 W/m 5,7 C 12,6 C 7,9 km/h (2 Bft) 0,00 %
07.09.2015 10:25 12,4 C 64 % 1023,0 hPa 0,0 l/m 7,2 km/h (2 Bft) W-NW 288 0 min 0,000 mm 1,0 UV-I 252 W/m 5,8 C 11,9 C 11,9 km/h (2 Bft) 0,00 %
07.09.2015 10:30 12,4 C 64 % 1022,9 hPa 0,0 l/m 1,8 km/h (1 Bft) NW 312 0 min 0,000 mm 1,0 UV-I 269 W/m 5,8 C 12,4 C 4,0 km/h (1 Bft) 0,00 %
07.09.2015 10:35 12,5 C 63 % 1023,1 hPa 0,0 l/m 6,8 km/h (2 Bft) N-NW 347 0 min 0,000 mm 1,0 UV-I 234 W/m 5,7 C 12,2 C 11,9 km/h (2 Bft) 0,00 %
07.09.2015 10:40 12,6 C 63 % 1023,0 hPa 0,0 l/m 2,9 km/h (1 Bft) N-NW 346 0 min 0,000 mm 1,0 UV-I 285 W/m 5,7 C 12,6 C 7,9 km/h (2 Bft) 0,00 %
07.09.2015 10:45 12,7 C 62 % 1023,1 hPa 0,0 l/m 0,7 km/h (0 Bft) SO 141 0 min 0,000 mm 1,0 UV-I 320 W/m 5,6 C 12,7 C 4,0 km/h (1 Bft) 0,00 %
07.09.2015 10:50 12,9 C 61 % 1023,2 hPa 0,0 l/m 14,0 km/h (3 Bft) W-SW 256 5 min 0,000 mm 2,0 UV-I 370 W/m 5,6 C 9,0 C 19,8 km/h (3 Bft) 0,00 %
07.09.2015 10:55 13,1 C 61 % 1022,8 hPa 0,0 l/m 9,0 km/h (2 Bft) N-NW 343 0 min 0,000 mm 1,0 UV-I 306 W/m 5,8 C 11,5 C 11,9 km/h (2 Bft) 0,00 %
07.09.2015 11:00 13,2 C 61 % 1022,9 hPa 0,0 l/m 2,2 km/h (1 Bft) W-SW 256 0 min 0,000 mm 1,0 UV-I 252 W/m 5,8 C 13,2 C 4,0 km/h (1 Bft) 0,00 %
07.09.2015 11:05 13,3 C 62 % 1023,1 hPa 0,0 l/m 0,0 km/h (0 Bft) O-NO 65 0 min 0,000 mm 1,0 UV-I 272 W/m 6,2 C 13,3 C 0,0 km/h (0 Bft) 0,00 %
07.09.2015 11:10 13,3 C 61 % 1023,1 hPa 0,0 l/m 1,4 km/h (1 Bft) N-NW 334 0 min 0,000 mm 1,0 UV-I 238 W/m 5,9 C 13,3 C 4,0 km/h (1 Bft) 0,00 %
07.09.2015 11:15 13,3 C 61 % 1023,0 hPa 0,0 l/m 7,9 km/h (2 Bft) W 280 0 min 0,000 mm 1,0 UV-I 282 W/m 5,9 C 12,4 C 11,9 km/h (2 Bft) 0,00 %
07.09.2015 11:20 13,1 C 62 % 1023,0 hPa 0,0 l/m 0,4 km/h (0 Bft) O-NO 65 0 min 0,000 mm 1,0 UV-I 257 W/m 6,0 C 13,1 C 4,0 km/h (1 Bft) 0,00 %
07.09.2015 11:25 13,1 C 62 % 1023,0 hPa 0,0 l/m 2,9 km/h (1 Bft) NW 325 0 min 0,000 mm 1,0 UV-I 246 W/m 6,0 C 13,1 C 7,9 km/h (2 Bft) 0,00 %
07.09.2015 11:30 13,3 C 62 % 1023,0 hPa 0,0 l/m 0,7 km/h (0 Bft) W-SW 255 0 min 0,000 mm 1,0 UV-I 266 W/m 6,2 C 13,3 C 4,0 km/h (1 Bft) 0,00 %
07.09.2015 11:35 13,3 C 62 % 1023,0 hPa 0,0 l/m 4,7 km/h (1 Bft) W 279 0 min 0,000 mm 1,0 UV-I 236 W/m 6,2 C 13,3 C 7,9 km/h (2 Bft) 0,00 %
07.09.2015 11:40 13,1 C 62 % 1023,1 hPa 0,0 l/m 7,9 km/h (2 Bft) NW 318 0 min 0,000 mm 1,0 UV-I 237 W/m 6,0 C 12,2 C 11,9 km/h (2 Bft) 0,00 %
07.09.2015 11:45 13,0 C 62 % 1023,0 hPa 0,0 l/m 5,8 km/h (2 Bft) W-NW 290 0 min 0,000 mm 1,0 UV-I 228 W/m 5,9 C 13,0 C 11,9 km/h (2 Bft) 0,00 %
07.09.2015 11:50 12,9 C 63 % 1022,9 hPa 0,0 l/m 4,7 km/h (1 Bft) W-SW 249 0 min 0,000 mm 1,0 UV-I 182 W/m 6,0 C 12,9 C 7,9 km/h (2 Bft) 0,00 %
07.09.2015 11:55 12,8 C 64 % 1023,1 hPa 0,0 l/m 4,7 km/h (1 Bft) N-NW 339 0 min 0,000 mm 1,0 UV-I 163 W/m 6,2 C 12,8 C 7,9 km/h (2 Bft) 0,00 %
07.09.2015 12:00 12,8 C 63 % 1023,1 hPa 0,0 l/m 9,7 km/h (2 Bft) W-SW 254 0 min 0,000 mm 1,0 UV-I 174 W/m 5,9 C 10,8 C 11,9 km/h (2 Bft) 0,00 %
07.09.2015 12:05 12,8 C 63 % 1023,1 hPa 0,0 l/m 11,5 km/h (2 Bft) W-SW 254 0 min 0,000 mm 1,0 UV-I 184 W/m 5,9 C 10,0 C 11,9 km/h (2 Bft) 0,00 %
07.09.2015 12:10 12,7 C 63 % 1023,0 hPa 0,0 l/m 9,4 km/h (2 Bft) NW 308 0 min 0,000 mm 1,0 UV-I 234 W/m 5,8 C 10,9 C 11,9 km/h (2 Bft) 0,00 %
07.09.2015 12:15 12,8 C 63 % 1023,0 hPa 0,0 l/m 12,2 km/h (2 Bft) W-SW 255 0 min 0,000 mm 1,0 UV-I 216 W/m 5,9 C 9,7 C 19,8 km/h (3 Bft) 0,00 %
07.09.2015 12:20 12,8 C 62 % 1022,9 hPa 0,0 l/m 4,0 km/h (1 Bft) W-SW 255 0 min 0,000 mm 1,0 UV-I 230 W/m 5,7 C 12,8 C 7,9 km/h (2 Bft) 0,00 %
07.09.2015 12:25 12,8 C 63 % 1022,9 hPa 0,0 l/m 0,0 km/h (0 Bft) S 178 0 min 0,000 mm 1,0 UV-I 267 W/m 5,9 C 12,8 C 0,0 km/h (0 Bft) 0,00 %
07.09.2015 12:30 13,0 C 61 % 1022,9 hPa 0,0 l/m 0,0 km/h (0 Bft) NO 52 0 min 0,000 mm 1,0 UV-I 255 W/m 5,7 C 13,0 C 0,0 km/h (0 Bft) 0,00 %
07.09.2015 12:35 13,1 C 61 % 1022,9 hPa 0,0 l/m 5,4 km/h (1 Bft) W 268 0 min 0,000 mm 1,0 UV-I 216 W/m 5,8 C 13,1 C 7,9 km/h (2 Bft) 0,00 %
07.09.2015 12:40 13,2 C 61 % 1022,7 hPa 0,0 l/m 2,9 km/h (1 Bft) N 353 0 min 0,000 mm 1,0 UV-I 237 W/m 5,8 C 13,2 C 4,0 km/h (1 Bft) 0,00 %
07.09.2015 12:45 13,2 C 61 % 1022,8 hPa 0,0 l/m 1,4 km/h (1 Bft) O-NO 64 0 min 0,000 mm 1,0 UV-I 304 W/m 5,8 C 13,2 C 4,0 km/h (1 Bft) 0,00 %
07.09.2015 12:50 13,3 C 61 % 1022,6 hPa 0,0 l/m 0,7 km/h (0 Bft) NW 315 0 min 0,000 mm 1,0 UV-I 201 W/m 5,9 C 13,3 C 4,0 km/h (1 Bft) 0,00 %
07.09.2015 12:55 13,5 C 59 % 1022,7 hPa 0,0 l/m 4,3 km/h (1 Bft) S 172 0 min 0,000 mm 1,0 UV-I 174 W/m 5,6 C 13,5 C 7,9 km/h (2 Bft) 0,00 %
07.09.2015 13:00 13,4 C 63 % 1022,8 hPa 0,0 l/m 9,7 km/h (2 Bft) W-NW 284 0 min 0,000 mm 1,0 UV-I 166 W/m 6,5 C 11,5 C 11,9 km/h (2 Bft) 0,00 %
07.09.2015 13:05 13,1 C 64 % 1022,8 hPa 0,0 l/m 0,7 km/h (0 Bft) S-SW 207 0 min 0,000 mm 1,0 UV-I 167 W/m 6,4 C 13,1 C 4,0 km/h (1 Bft) 0,00 %
07.09.2015 13:10 12,8 C 64 % 1022,8 hPa 0,0 l/m 0,0 km/h (0 Bft) NO 48 0 min 0,000 mm 1,0 UV-I 141 W/m 6,2 C 12,8 C 0,0 km/h (0 Bft) 0,00 %
07.09.2015 13:15 12,6 C 64 % 1022,9 hPa 0,0 l/m 6,8 km/h (2 Bft) W-SW 255 0 min 0,000 mm 1,0 UV-I 143 W/m 6,0 C 12,4 C 11,9 km/h (2 Bft) 0,00 %
07.09.2015 13:20 12,4 C 67 % 1023,0 hPa 0,0 l/m 2,2 km/h (1 Bft) N-NW 343 0 min 0,000 mm 1,0 UV-I 136 W/m 6,4 C 12,4 C 4,0 km/h (1 Bft) 0,00 %
07.09.2015 13:25 12,3 C 69 % 1022,9 hPa 0,0 l/m 1,8 km/h (1 Bft) W-SW 256 0 min 0,000 mm 1,0 UV-I 217 W/m 6,8 C 12,3 C 4,0 km/h (1 Bft) 0,00 %
07.09.2015 13:30 12,2 C 72 % 1022,8 hPa 0,0 l/m 1,8 km/h (1 Bft) SW 231 0 min 0,000 mm 2,0 UV-I 306 W/m 7,3 C 12,2 C 4,0 km/h (1 Bft) 0,00 %
07.09.2015 13:35 12,3 C 71 % 1022,6 hPa 0,0 l/m 3,2 km/h (1 Bft) N-NW 339 0 min 0,000 mm 2,0 UV-I 358 W/m 7,2 C 12,3 C 7,9 km/h (2 Bft) 0,00 %
07.09.2015 13:40 12,5 C 69 % 1022,7 hPa 0,0 l/m 7,9 km/h (2 Bft) W-SW 256 0 min 0,000 mm 2,0 UV-I 352 W/m 7,0 C 11,5 C 11,9 km/h (2 Bft) 0,00 %
07.09.2015 13:45 12,7 C 65 % 1022,7 hPa 0,0 l/m 4,0 km/h (1 Bft) NW 323 0 min 0,000 mm 2,0 UV-I 377 W/m 6,3 C 12,7 C 7,9 km/h (2 Bft) 0,00 %
07.09.2015 13:50 13,1 C 63 % 1022,9 hPa 0,0 l/m 1,4 km/h (1 Bft) O-NO 64 0 min 0,000 mm 2,0 UV-I 338 W/m 6,2 C 13,1 C 4,0 km/h (1 Bft) 0,00 %
07.09.2015 13:55 13,3 C 62 % 1022,7 hPa 0,0 l/m 7,9 km/h (2 Bft) W-SW 256 0 min 0,000 mm 1,0 UV-I 294 W/m 6,2 C 12,4 C 11,9 km/h (2 Bft) 0,00 %
07.09.2015 14:00 13,4 C 60 % 1022,6 hPa 0,0 l/m 0,4 km/h (0 Bft) O-NO 76 0 min 0,000 mm 1,0 UV-I 304 W/m 5,8 C 13,4 C 4,0 km/h (1 Bft) 0,00 %
07.09.2015 14:05 13,4 C 58 % 1022,5 hPa 0,0 l/m 0,7 km/h (0 Bft) W-NW 294 0 min 0,000 mm 1,0 UV-I 298 W/m 5,3 C 13,4 C 4,0 km/h (1 Bft) 0,00 %
07.09.2015 14:10 13,5 C 56 % 1022,5 hPa 0,0 l/m 2,2 km/h (1 Bft) W-SW 251 0 min 0,000 mm 1,0 UV-I 239 W/m 4,9 C 13,5 C 4,0 km/h (1 Bft) 0,00 %
07.09.2015 14:15 13,5 C 56 % 1022,5 hPa 0,0 l/m 5,8 km/h (2 Bft) W-SW 256 0 min 0,000 mm 1,0 UV-I 182 W/m 4,9 C 13,5 C 7,9 km/h (2 Bft) 0,00 %
07.09.2015 14:20 13,4 C 55 % 1022,6 hPa 0,0 l/m 10,8 km/h (2 Bft) W-SW 252 0 min 0,000 mm 1,0 UV-I 143 W/m 4,5 C 11,0 C 19,8 km/h (3 Bft) 0,00 %
07.09.2015 14:25 13,1 C 56 % 1022,7 hPa 0,0 l/m 5,8 km/h (2 Bft) N-NW 335 0 min 0,000 mm 1,0 UV-I 112 W/m 4,5 C 13,1 C 11,9 km/h (2 Bft) 0,00 %
07.09.2015 14:30 12,9 C 58 % 1022,9 hPa 0,0 l/m 5,8 km/h (2 Bft) W-SW 256 0 min 0,000 mm 1,0 UV-I 127 W/m 4,8 C 12,9 C 7,9 km/h (2 Bft) 0,00 %
07.09.2015 14:36 12,8 C 58 % 1022,8 hPa 0,0 l/m 6,5 km/h (2 Bft) N-NW 331 0 min 0,000 mm 1,0 UV-I 146 W/m 4,7 C 12,8 C 7,9 km/h (2 Bft) 0,00 %
07.09.2015 14:41 12,8 C 59 % 1022,6 hPa 0,0 l/m 7,9 km/h (2 Bft) W-SW 256 0 min 0,000 mm 1,0 UV-I 166 W/m 5,0 C 11,9 C 11,9 km/h (2 Bft) 0,00 %
07.09.2015 14:46 12,9 C 57 % 1022,7 hPa 0,0 l/m 7,9 km/h (2 Bft) N 357 0 min 0,000 mm 1,0 UV-I 164 W/m 4,6 C 12,0 C 11,9 km/h (2 Bft) 0,00 %
07.09.2015 14:51 12,9 C 57 % 1022,6 hPa 0,0 l/m 9,4 km/h (2 Bft) W-NW 288 0 min 0,000 mm 1,0 UV-I 137 W/m 4,6 C 11,1 C 15,8 km/h (3 Bft) 0,00 %
07.09.2015 14:56 12,9 C 57 % 1022,6 hPa 0,0 l/m 2,9 km/h (1 Bft) O 101 0 min 0,000 mm 1,0 UV-I 127 W/m 4,6 C 12,9 C 7,9 km/h (2 Bft) 0,00 %
07.09.2015 15:01 12,9 C 59 % 1022,6 hPa 0,0 l/m 6,5 km/h (2 Bft) W 280 0 min 0,000 mm 1,0 UV-I 130 W/m 5,1 C 12,9 C 7,9 km/h (2 Bft) 0,00 %
07.09.2015 15:06 12,8 C 59 % 1022,7 hPa 0,0 l/m 4,7 km/h (1 Bft) N-NW 340 0 min 0,000 mm 1,0 UV-I 132 W/m 5,0 C 12,8 C 15,8 km/h (3 Bft) 0,00 %
07.09.2015 15:11 12,9 C 57 % 1022,4 hPa 0,0 l/m 15,8 km/h (3 Bft) W-SW 253 0 min 0,000 mm 1,0 UV-I 142 W/m 4,6 C 8,4 C 19,8 km/h (3 Bft) 0,00 %
07.09.2015 15:16 12,9 C 58 % 1022,5 hPa 0,0 l/m 0,0 km/h (0 Bft) S-SO 158 0 min 0,000 mm 1,0 UV-I 132 W/m 4,8 C 12,9 C 0,0 km/h (0 Bft) 0,00 %
07.09.2015 15:21 13,0 C 59 % 1022,6 hPa 0,0 l/m 0,4 km/h (0 Bft) O-NO 63 0 min 0,000 mm 1,0 UV-I 103 W/m 5,2 C 13,0 C 4,0 km/h (1 Bft) 0,00 %
07.09.2015 15:26 13,0 C 61 % 1022,7 hPa 0,0 l/m 2,9 km/h (1 Bft) N 355 0 min 0,000 mm 0,0 UV-I 80 W/m 5,7 C 13,0 C 4,0 km/h (1 Bft) 0,00 %
07.09.2015 15:31 12,8 C 62 % 1022,8 hPa 0,0 l/m 2,2 km/h (1 Bft) NW 307 0 min 0,000 mm 0,0 UV-I 84 W/m 5,7 C 12,8 C 4,0 km/h (1 Bft) 0,00 %
07.09.2015 15:36 12,7 C 62 % 1022,8 hPa 0,0 l/m 0,0 km/h (0 Bft) NO 37 0 min 0,000 mm 0,0 UV-I 85 W/m 5,6 C 12,7 C 0,0 km/h (0 Bft) 0,00 %
07.09.2015 15:41 12,7 C 63 % 1022,9 hPa 0,0 l/m 0,4 km/h (0 Bft) S-SO 151 0 min 0,000 mm 1,0 UV-I 93 W/m 5,8 C 12,7 C 4,0 km/h (1 Bft) 0,00 %
07.09.2015 15:46 12,6 C 63 % 1022,8 hPa 0,0 l/m 2,2 km/h (1 Bft) SO 143 0 min 0,000 mm 0,0 UV-I 90 W/m 5,7 C 12,6 C 4,0 km/h (1 Bft) 0,00 %
07.09.2015 15:51 12,6 C 64 % 1022,8 hPa 0,0 l/m 2,2 km/h (1 Bft) NO 55 0 min 0,000 mm 1,0 UV-I 93 W/m 6,0 C 12,6 C 4,0 km/h (1 Bft) 0,00 %
07.09.2015 15:56 12,6 C 64 % 1022,8 hPa 0,0 l/m 0,7 km/h (0 Bft) N 354 0 min 0,000 mm 1,0 UV-I 96 W/m 6,0 C 12,6 C 4,0 km/h (1 Bft) 0,00 %
07.09.2015 16:01 12,6 C 64 % 1022,9 hPa 0,0 l/m 1,8 km/h (1 Bft) W-SW 256 0 min 0,000 mm 1,0 UV-I 104 W/m 6,0 C 12,6 C 4,0 km/h (1 Bft) 0,00 %
07.09.2015 16:06 12,6 C 64 % 1022,8 hPa 0,0 l/m 7,9 km/h (2 Bft) W-SW 255 0 min 0,000 mm 1,0 UV-I 114 W/m 6,0 C 11,6 C 11,9 km/h (2 Bft) 0,00 %
07.09.2015 16:11 12,7 C 63 % 1022,6 hPa 0,0 l/m 2,2 km/h (1 Bft) W-SW 251 0 min 0,000 mm 1,0 UV-I 125 W/m 5,8 C 12,7 C 4,0 km/h (1 Bft) 0,00 %
07.09.2015 16:16 12,8 C 64 % 1022,5 hPa 0,0 l/m 0,7 km/h (0 Bft) W-SW 242 0 min 0,000 mm 1,0 UV-I 163 W/m 6,2 C 12,8 C 4,0 km/h (1 Bft) 0,00 %
07.09.2015 16:21 12,8 C 62 % 1022,6 hPa 0,0 l/m 4,7 km/h (1 Bft) W-NW 289 0 min 0,000 mm 1,0 UV-I 142 W/m 5,7 C 12,8 C 7,9 km/h (2 Bft) 0,00 %
07.09.2015 16:26 13,0 C 63 % 1022,4 hPa 0,0 l/m 0,4 km/h (0 Bft) N-NW 345 0 min 0,000 mm 1,0 UV-I 141 W/m 6,1 C 13,0 C 4,0 km/h (1 Bft) 0,00 %
07.09.2015 16:31 13,1 C 64 % 1022,3 hPa 0,0 l/m 4,0 km/h (1 Bft) N 351 0 min 0,000 mm 1,0 UV-I 124 W/m 6,4 C 13,1 C 7,9 km/h (2 Bft) 0,00 %
07.09.2015 16:36 13,1 C 64 % 1022,7 hPa 0,0 l/m 0,4 km/h (0 Bft) O 83 0 min 0,000 mm 1,0 UV-I 112 W/m 6,4 C 13,1 C 4,0 km/h (1 Bft) 0,00 %
07.09.2015 16:41 13,1 C 63 % 1022,7 hPa 0,0 l/m 0,4 km/h (0 Bft) W 263 0 min 0,000 mm 1,0 UV-I 109 W/m 6,2 C 13,1 C 4,0 km/h (1 Bft) 0,00 %
07.09.2015 16:46 13,0 C 64 % 1022,5 hPa 0,0 l/m 0,4 km/h (0 Bft) NW 323 0 min 0,000 mm 1,0 UV-I 95 W/m 6,4 C 13,0 C 4,0 km/h (1 Bft) 0,00 %
07.09.2015 16:51 12,9 C 65 % 1022,8 hPa 0,0 l/m 1,8 km/h (1 Bft) N 349 0 min 0,000 mm 0,0 UV-I 80 W/m 6,5 C 12,9 C 4,0 km/h (1 Bft) 0,00 %
07.09.2015 16:56 12,8 C 66 % 1022,9 hPa 0,0 l/m 1,8 km/h (1 Bft) O 84 0 min 0,000 mm 0,0 UV-I 81 W/m 6,6 C 12,8 C 4,0 km/h (1 Bft) 0,00 %
07.09.2015 17:01 12,7 C 66 % 1022,7 hPa 0,0 l/m 3,2 km/h (1 Bft) W-NW 287 0 min 0,000 mm 0,0 UV-I 82 W/m 6,5 C 12,7 C 4,0 km/h (1 Bft) 0,00 %
07.09.2015 17:06 12,7 C 67 % 1023,2 hPa 0,0 l/m 5,4 km/h (1 Bft) W 259 0 min 0,000 mm 0,0 UV-I 68 W/m 6,7 C 12,7 C 7,9 km/h (2 Bft) 0,00 %
07.09.2015 17:11 12,6 C 66 % 1023,2 hPa 0,0 l/m 2,2 km/h (1 Bft) W-SW 256 0 min 0,000 mm 0,0 UV-I 52 W/m 6,4 C 12,6 C 4,0 km/h (1 Bft) 0,00 %
07.09.2015 17:16 12,6 C 67 % 1023,1 hPa 0,0 l/m 0,7 km/h (0 Bft) O-NO 66 0 min 0,000 mm 0,0 UV-I 58 W/m 6,6 C 12,6 C 4,0 km/h (1 Bft) 0,00 %
07.09.2015 17:21 12,6 C 66 % 1023,2 hPa 0,0 l/m 4,3 km/h (1 Bft) W-NW 301 0 min 0,000 mm 0,0 UV-I 48 W/m 6,4 C 12,6 C 7,9 km/h (2 Bft) 0,00 %
07.09.2015 17:26 12,5 C 66 % 1023,4 hPa 0,0 l/m 4,0 km/h (1 Bft) W-SW 256 0 min 0,000 mm 0,0 UV-I 40 W/m 6,3 C 12,5 C 4,0 km/h (1 Bft) 0,00 %
07.09.2015 17:31 12,5 C 66 % 1023,3 hPa 0,0 l/m 0,0 km/h (0 Bft) N-NO 32 0 min 0,000 mm 0,0 UV-I 47 W/m 6,3 C 12,5 C 0,0 km/h (0 Bft) 0,00 %
07.09.2015 17:36 12,4 C 66 % 1023,3 hPa 0,0 l/m 2,2 km/h (1 Bft) W-SW 256 0 min 0,000 mm 0,0 UV-I 40 W/m 6,2 C 12,4 C 4,0 km/h (1 Bft) 0,00 %
07.09.2015 17:41 12,4 C 66 % 1023,4 hPa 0,0 l/m 2,9 km/h (1 Bft) O-SO 110 0 min 0,000 mm 0,0 UV-I 29 W/m 6,2 C 12,4 C 7,9 km/h (2 Bft) 0,00 %
07.09.2015 17:46 12,4 C 66 % 1023,5 hPa 0,0 l/m 6,8 km/h (2 Bft) W-NW 289 0 min 0,000 mm 0,0 UV-I 27 W/m 6,2 C 12,1 C 7,9 km/h (2 Bft) 0,00 %
07.09.2015 17:51 12,4 C 66 % 1023,5 hPa 0,0 l/m 4,0 km/h (1 Bft) W-SW 256 0 min 0,000 mm 0,0 UV-I 32 W/m 6,2 C 12,4 C 7,9 km/h (2 Bft) 0,00 %
07.09.2015 17:56 12,4 C 66 % 1023,6 hPa 0,0 l/m 4,3 km/h (1 Bft) N-NO 33 0 min 0,000 mm 0,0 UV-I 39 W/m 6,2 C 12,4 C 7,9 km/h (2 Bft) 0,00 %
07.09.2015 18:01 12,4 C 66 % 1023,3 hPa 0,0 l/m 0,7 km/h (0 Bft) O 87 0 min 0,000 mm 0,0 UV-I 31 W/m 6,2 C 12,4 C 4,0 km/h (1 Bft) 0,00 %
07.09.2015 18:06 12,4 C 66 % 1023,3 hPa 0,0 l/m 0,4 km/h (0 Bft) N-NO 31 0 min 0,000 mm 0,0 UV-I 28 W/m 6,2 C 12,4 C 4,0 km/h (1 Bft) 0,00 %
07.09.2015 18:11 12,3 C 66 % 1023,6 hPa 0,0 l/m 0,7 km/h (0 Bft) NO 40 0 min 0,000 mm 0,0 UV-I 25 W/m 6,1 C 12,3 C 4,0 km/h (1 Bft) 0,00 %
07.09.2015 18:16 12,2 C 66 % 1023,8 hPa 0,0 l/m 1,4 km/h (1 Bft) W 260 0 min 0,000 mm 0,0 UV-I 21 W/m 6,0 C 12,2 C 4,0 km/h (1 Bft) 0,00 %
07.09.2015 18:21 12,2 C 67 % 1023,7 hPa 0,0 l/m 4,7 km/h (1 Bft) W-NW 283 0 min 0,000 mm 0,0 UV-I 12 W/m 6,3 C 12,2 C 7,9 km/h (2 Bft) 0,00 %
07.09.2015 18:26 12,2 C 67 % 1023,8 hPa 0,0 l/m 1,4 km/h (1 Bft) NW 305 0 min 0,000 mm 0,0 UV-I 7 W/m 6,3 C 12,2 C 4,0 km/h (1 Bft) 0,00 %
07.09.2015 18:31 12,1 C 67 % 1023,8 hPa 0,0 l/m 4,3 km/h (1 Bft) W-SW 256 0 min 0,000 mm 0,0 UV-I 3 W/m 6,2 C 12,1 C 7,9 km/h (2 Bft) 0,00 %
07.09.2015 18:36 12,1 C 68 % 1023,8 hPa 0,0 l/m 2,9 km/h (1 Bft) W 280 0 min 0,000 mm 0,0 UV-I 3 W/m 6,4 C 12,1 C 4,0 km/h (1 Bft) 0,00 %
07.09.2015 18:41 12,0 C 68 % 1023,8 hPa 0,0 l/m 0,0 km/h (0 Bft) NO 50 0 min 0,000 mm 0,0 UV-I 2 W/m 6,3 C 12,0 C 0,0 km/h (0 Bft) 0,00 %
07.09.2015 18:46 12,0 C 69 % 1023,8 hPa 0,0 l/m 0,0 km/h (0 Bft) NO 49 0 min 0,000 mm 0,0 UV-I 4 W/m 6,5 C 12,0 C 0,0 km/h (0 Bft) 0,00 %
07.09.2015 18:51 11,9 C 69 % 1024,0 hPa 0,0 l/m 0,0 km/h (0 Bft) N 350 0 min 0,000 mm 0,0 UV-I 2 W/m 6,4 C 11,9 C 0,0 km/h (0 Bft) 0,00 %
07.09.2015 18:56 11,9 C 70 % 1023,9 hPa 0,0 l/m 0,0 km/h (0 Bft) O-NO 73 0 min 0,000 mm 0,0 UV-I 0 W/m 6,6 C 11,9 C 0,0 km/h (0 Bft) 0,00 %
07.09.2015 19:01 11,9 C 71 % 1023,7 hPa 0,0 l/m 0,0 km/h (0 Bft) O-NO 76 0 min 0,000 mm 0,0 UV-I 0 W/m 6,8 C 11,9 C 0,0 km/h (0 Bft) 0,00 %
07.09.2015 19:06 11,8 C 72 % 1023,8 hPa 0,0 l/m 0,0 km/h (0 Bft) N 352 0 min 0,000 mm 0,0 UV-I 0 W/m 6,9 C 11,8 C 0,0 km/h (0 Bft) 0,00 %
07.09.2015 19:11 11,8 C 72 % 1023,8 hPa 0,0 l/m 0,0 km/h (0 Bft) N-NW 346 0 min 0,000 mm 0,0 UV-I 0 W/m 6,9 C 11,8 C 0,0 km/h (0 Bft) 0,00 %
07.09.2015 19:16 11,8 C 71 % 1024,0 hPa 0,0 l/m 0,0 km/h (0 Bft) N 349 0 min 0,000 mm 0,0 UV-I 0 W/m 6,7 C 11,8 C 0,0 km/h (0 Bft) 0,00 %
07.09.2015 19:21 11,8 C 71 % 1023,8 hPa 0,0 l/m 0,7 km/h (0 Bft) NW 304 0 min 0,000 mm 0,0 UV-I 0 W/m 6,7 C 11,8 C 4,0 km/h (1 Bft) 0,00 %
07.09.2015 19:26 11,9 C 72 % 1024,1 hPa 0,0 l/m 0,0 km/h (0 Bft) N 353 0 min 0,000 mm 0,0 UV-I 0 W/m 7,0 C 11,9 C 0,0 km/h (0 Bft) 0,00 %
07.09.2015 19:31 11,9 C 72 % 1023,9 hPa 0,0 l/m 0,0 km/h (0 Bft) O-NO 70 0 min 0,000 mm 0,0 UV-I 0 W/m 7,0 C 11,9 C 0,0 km/h (0 Bft) 0,00 %
07.09.2015 19:36 11,9 C 72 % 1024,0 hPa 0,0 l/m 0,0 km/h (0 Bft) O-NO 65 0 min 0,000 mm 0,0 UV-I 0 W/m 7,0 C 11,9 C 0,0 km/h (0 Bft) 0,00 %
07.09.2015 19:41 11,9 C 72 % 1023,8 hPa 0,0 l/m 0,0 km/h (0 Bft) NO 50 0 min 0,000 mm 0,0 UV-I 0 W/m 7,0 C 11,9 C 0,0 km/h (0 Bft) 0,00 %
07.09.2015 19:46 11,9 C 72 % 1024,0 hPa 0,0 l/m 0,4 km/h (0 Bft) N-NO 31 0 min 0,000 mm 0,0 UV-I 0 W/m 7,0 C 11,9 C 4,0 km/h (1 Bft) 0,00 %
07.09.2015 19:51 11,9 C 73 % 1024,2 hPa 0,0 l/m 0,4 km/h (0 Bft) NO 39 0 min 0,000 mm 0,0 UV-I 0 W/m 7,2 C 11,9 C 4,0 km/h (1 Bft) 0,00 %
07.09.2015 19:56 11,9 C 73 % 1024,1 hPa 0,0 l/m 0,0 km/h (0 Bft) N 355 0 min 0,000 mm 0,0 UV-I 0 W/m 7,2 C 11,9 C 0,0 km/h (0 Bft) 0,00 %
07.09.2015 20:01 11,9 C 73 % 1024,2 hPa 0,0 l/m 0,0 km/h (0 Bft) O 91 0 min 0,000 mm 0,0 UV-I 0 W/m 7,2 C 11,9 C 0,0 km/h (0 Bft) 0,00 %
07.09.2015 20:06 11,8 C 72 % 1024,2 hPa 0,0 l/m 4,3 km/h (1 Bft) W-SW 255 0 min 0,000 mm 0,0 UV-I 0 W/m 6,9 C 11,8 C 7,9 km/h (2 Bft) 0,00 %
07.09.2015 20:11 11,8 C 72 % 1024,3 hPa 0,0 l/m 0,4 km/h (0 Bft) N-NW 337 0 min 0,000 mm 0,0 UV-I 0 W/m 6,9 C 11,8 C 4,0 km/h (1 Bft) 0,00 %
07.09.2015 20:16 11,8 C 73 % 1024,3 hPa 0,0 l/m 0,0 km/h (0 Bft) N 355 0 min 0,000 mm 0,0 UV-I 0 W/m 7,1 C 11,8 C 0,0 km/h (0 Bft) 0,00 %
07.09.2015 20:21 11,8 C 72 % 1024,4 hPa 0,0 l/m 0,4 km/h (0 Bft) NW 326 0 min 0,000 mm 0,0 UV-I 0 W/m 6,9 C 11,8 C 4,0 km/h (1 Bft) 0,00 %
07.09.2015 20:26 11,8 C 73 % 1024,4 hPa 0,0 l/m 0,0 km/h (0 Bft) N-NW 340 0 min 0,000 mm 0,0 UV-I 0 W/m 7,1 C 11,8 C 0,0 km/h (0 Bft) 0,00 %
07.09.2015 20:31 11,8 C 72 % 1024,4 hPa 0,0 l/m 1,4 km/h (1 Bft) N-NW 338 0 min 0,000 mm 0,0 UV-I 0 W/m 6,9 C 11,8 C 4,0 km/h (1 Bft) 0,00 %
07.09.2015 20:36 11,8 C 72 % 1024,5 hPa 0,0 l/m 0,0 km/h (0 Bft) N-NW 341 0 min 0,000 mm 0,0 UV-I 0 W/m 6,9 C 11,8 C 0,0 km/h (0 Bft) 0,00 %
07.09.2015 20:41 11,8 C 72 % 1024,6 hPa 0,0 l/m 1,4 km/h (1 Bft) O-SO 110 0 min 0,000 mm 0,0 UV-I 0 W/m 6,9 C 11,8 C 4,0 km/h (1 Bft) 0,00 %
07.09.2015 20:46 11,8 C 72 % 1024,5 hPa 0,0 l/m 0,4 km/h (0 Bft) N 357 0 min 0,000 mm 0,0 UV-I 0 W/m 6,9 C 11,8 C 4,0 km/h (1 Bft) 0,00 %
07.09.2015 20:51 11,7 C 73 % 1024,6 hPa 0,0 l/m 1,8 km/h (1 Bft) N-NW 345 0 min 0,000 mm 0,0 UV-I 0 W/m 7,0 C 11,7 C 4,0 km/h (1 Bft) 0,00 %
07.09.2015 20:56 11,7 C 73 % 1024,7 hPa 0,0 l/m 0,0 km/h (0 Bft) N-NO 33 0 min 0,000 mm 0,0 UV-I 0 W/m 7,0 C 11,7 C 0,0 km/h (0 Bft) 0,00 %
07.09.2015 21:01 11,6 C 74 % 1024,7 hPa 0,0 l/m 0,4 km/h (0 Bft) S 179 0 min 0,000 mm 0,0 UV-I 0 W/m 7,1 C 11,6 C 4,0 km/h (1 Bft) 0,00 %
07.09.2015 21:06 11,6 C 74 % 1024,9 hPa 0,0 l/m 0,4 km/h (0 Bft) N 356 0 min 0,000 mm 0,0 UV-I 0 W/m 7,1 C 11,6 C 4,0 km/h (1 Bft) 0,00 %
07.09.2015 21:11 11,6 C 74 % 1024,9 hPa 0,0 l/m 1,4 km/h (1 Bft) NO 45 0 min 0,000 mm 0,0 UV-I 0 W/m 7,1 C 11,6 C 4,0 km/h (1 Bft) 0,00 %
07.09.2015 21:16 11,5 C 75 % 1024,6 hPa 0,0 l/m 0,4 km/h (0 Bft) N-NW 327 0 min 0,000 mm 0,0 UV-I 0 W/m 7,2 C 11,5 C 4,0 km/h (1 Bft) 0,00 %
07.09.2015 21:21 11,5 C 75 % 1024,8 hPa 0,0 l/m 1,4 km/h (1 Bft) NO 55 0 min 0,000 mm 0,0 UV-I 0 W/m 7,2 C 11,5 C 4,0 km/h (1 Bft) 0,00 %
07.09.2015 21:26 11,5 C 75 % 1024,7 hPa 0,0 l/m 0,0 km/h (0 Bft) O-SO 102 0 min 0,000 mm 0,0 UV-I 0 W/m 7,2 C 11,5 C 0,0 km/h (0 Bft) 0,00 %
07.09.2015 21:31 11,5 C 75 % 1024,7 hPa 0,0 l/m 4,3 km/h (1 Bft) NO 37 0 min 0,000 mm 0,0 UV-I 0 W/m 7,2 C 11,5 C 7,9 km/h (2 Bft) 0,00 %
07.09.2015 21:36 11,5 C 76 % 1025,0 hPa 0,0 l/m 0,7 km/h (0 Bft) N-NW 339 0 min 0,000 mm 0,0 UV-I 0 W/m 7,4 C 11,5 C 4,0 km/h (1 Bft) 0,00 %
07.09.2015 21:41 11,5 C 76 % 1024,8 hPa 0,0 l/m 0,0 km/h (0 Bft) NW 323 0 min 0,000 mm 0,0 UV-I 0 W/m 7,4 C 11,5 C 0,0 km/h (0 Bft) 0,00 %
07.09.2015 21:46 11,4 C 76 % 1024,7 hPa 0,0 l/m 2,9 km/h (1 Bft) W 259 0 min 0,000 mm 0,0 UV-I 0 W/m 7,3 C 11,4 C 4,0 km/h (1 Bft) 0,00 %
07.09.2015 21:51 11,4 C 76 % 1024,7 hPa 0,0 l/m 0,0 km/h (0 Bft) NO 38 0 min 0,000 mm 0,0 UV-I 0 W/m 7,3 C 11,4 C 0,0 km/h (0 Bft) 0,00 %
07.09.2015 21:56 11,4 C 77 % 1024,9 hPa 0,0 l/m 0,0 km/h (0 Bft) NO 56 0 min 0,000 mm 0,0 UV-I 0 W/m 7,5 C 11,4 C 0,0 km/h (0 Bft) 0,00 %
07.09.2015 22:01 11,4 C 77 % 1025,0 hPa 0,0 l/m 0,4 km/h (0 Bft) O-SO 110 0 min 0,000 mm 0,0 UV-I 0 W/m 7,5 C 11,4 C 4,0 km/h (1 Bft) 0,00 %
07.09.2015 22:06 11,4 C 77 % 1024,9 hPa 0,0 l/m 0,7 km/h (0 Bft) W-SW 255 0 min 0,000 mm 0,0 UV-I 0 W/m 7,5 C 11,4 C 4,0 km/h (1 Bft) 0,00 %
07.09.2015 22:11 11,4 C 78 % 1024,9 hPa 0,0 l/m 1,4 km/h (1 Bft) N 350 0 min 0,000 mm 0,0 UV-I 0 W/m 7,7 C 11,4 C 4,0 km/h (1 Bft) 0,00 %
07.09.2015 22:16 11,4 C 77 % 1024,9 hPa 0,0 l/m 0,4 km/h (0 Bft) NO 55 0 min 0,000 mm 0,0 UV-I 0 W/m 7,5 C 11,4 C 4,0 km/h (1 Bft) 0,00 %
07.09.2015 22:21 11,4 C 78 % 1025,0 hPa 0,0 l/m 0,0 km/h (0 Bft) N 349 0 min 0,000 mm 0,0 UV-I 0 W/m 7,7 C 11,4 C 0,0 km/h (0 Bft) 0,00 %
07.09.2015 22:26 11,4 C 78 % 1025,0 hPa 0,0 l/m 2,9 km/h (1 Bft) W-NW 298 0 min 0,000 mm 0,0 UV-I 0 W/m 7,7 C 11,4 C 4,0 km/h (1 Bft) 0,00 %
07.09.2015 22:31 11,3 C 78 % 1025,0 hPa 0,0 l/m 1,4 km/h (1 Bft) N-NO 27 0 min 0,000 mm 0,0 UV-I 0 W/m 7,6 C 11,3 C 4,0 km/h (1 Bft) 0,00 %
07.09.2015 22:36 11,3 C 78 % 1025,2 hPa 0,0 l/m 4,0 km/h (1 Bft) W 275 0 min 0,000 mm 0,0 UV-I 0 W/m 7,6 C 11,3 C 7,9 km/h (2 Bft) 0,00 %
07.09.2015 22:41 11,3 C 78 % 1025,1 hPa 0,0 l/m 4,0 km/h (1 Bft) W-NW 293 0 min 0,000 mm 0,0 UV-I 0 W/m 7,6 C 11,3 C 7,9 km/h (2 Bft) 0,00 %
07.09.2015 22:46 11,2 C 79 % 1025,1 hPa 0,0 l/m 0,7 km/h (0 Bft) NW 304 0 min 0,000 mm 0,0 UV-I 0 W/m 7,7 C 11,2 C 4,0 km/h (1 Bft) 0,00 %
07.09.2015 22:51 11,2 C 81 % 1025,1 hPa 0,0 l/m 1,8 km/h (1 Bft) W 281 0 min 0,000 mm 0,0 UV-I 0 W/m 8,1 C 11,2 C 4,0 km/h (1 Bft) 0,00 %
07.09.2015 22:56 10,9 C 84 % 1025,0 hPa 0,0 l/m 0,7 km/h (0 Bft) W 267 0 min 0,000 mm 0,0 UV-I 0 W/m 8,3 C 10,9 C 4,0 km/h (1 Bft) 0,00 %
07.09.2015 23:01 10,7 C 86 % 1025,1 hPa 0,3 l/m 1,8 km/h (1 Bft) SW 234 0 min 0,000 mm 0,0 UV-I 0 W/m 8,5 C 10,7 C 4,0 km/h (1 Bft) 0,00 %
07.09.2015 23:06 10,6 C 87 % 1025,1 hPa 0,0 l/m 0,4 km/h (0 Bft) N-NW 347 0 min 0,000 mm 0,0 UV-I 0 W/m 8,5 C 10,6 C 4,0 km/h (1 Bft) 0,00 %
07.09.2015 23:11 10,5 C 87 % 1025,2 hPa 0,0 l/m 1,8 km/h (1 Bft) N 358 0 min 0,000 mm 0,0 UV-I 0 W/m 8,4 C 10,5 C 4,0 km/h (1 Bft) 0,00 %
07.09.2015 23:16 10,5 C 87 % 1025,3 hPa 0,0 l/m 0,0 km/h (0 Bft) NO 43 0 min 0,000 mm 0,0 UV-I 0 W/m 8,4 C 10,5 C 0,0 km/h (0 Bft) 0,00 %
07.09.2015 23:21 10,5 C 88 % 1025,4 hPa 0,0 l/m 0,0 km/h (0 Bft) N 349 0 min 0,000 mm 0,0 UV-I 0 W/m 8,6 C 10,5 C 0,0 km/h (0 Bft) 0,00 %
07.09.2015 23:26 10,5 C 89 % 1025,3 hPa 0,3 l/m 1,8 km/h (1 Bft) S-SW 210 0 min 0,000 mm 0,0 UV-I 0 W/m 8,8 C 10,5 C 4,0 km/h (1 Bft) 0,00 %
07.09.2015 23:31 10,4 C 89 % 1025,3 hPa 0,0 l/m 0,4 km/h (0 Bft) N-NW 344 0 min 0,000 mm 0,0 UV-I 0 W/m 8,7 C 10,4 C 4,0 km/h (1 Bft) 0,00 %
07.09.2015 23:36 10,3 C 90 % 1025,4 hPa 0,3 l/m 0,0 km/h (0 Bft) N-NW 344 0 min 0,000 mm 0,0 UV-I 0 W/m 8,7 C 10,3 C 0,0 km/h (0 Bft) 0,00 %
07.09.2015 23:41 10,2 C 90 % 1025,3 hPa 0,0 l/m 3,2 km/h (1 Bft) W-SW 256 0 min 0,000 mm 0,0 UV-I 0 W/m 8,6 C 10,2 C 4,0 km/h (1 Bft) 0,00 %
07.09.2015 23:46 10,2 C 91 % 1025,5 hPa 0,3 l/m 0,0 km/h (0 Bft) N 351 0 min 0,000 mm 0,0 UV-I 0 W/m 8,8 C 10,2 C 0,0 km/h (0 Bft) 0,00 %
07.09.2015 23:51 10,1 C 92 % 1025,6 hPa 0,3 l/m 0,0 km/h (0 Bft) NW 324 0 min 0,000 mm 0,0 UV-I 0 W/m 8,9 C 10,1 C 0,0 km/h (0 Bft) 0,00 %
07.09.2015 23:56 10,1 C 92 % 1025,5 hPa 0,3 l/m 0,7 km/h (0 Bft) W-SW 255 0 min 0,000 mm 0,0 UV-I 0 W/m 8,9 C 10,1 C 4,0 km/h (1 Bft) 0,00 %
_ Min-Zeit 06:55 14:20 08:20 - 00:10 - - - - - - 05:15 06:05 00:10 00:00
Minimum _ 7,6 C 55 % 1022,2 hPa - 0,0 km/h (0 Bft) - - - - - - 4,3 C 6,0 C 0,0 km/h (0 Bft) 0,00 %
_ Max-Zeit 12:55 23:51 23:51 23:01 15:11 - - 07:35 00:00 10:50 13:45 23:51 12:55 10:50 00:00
Maximum _ 13,5 C 92 % 1025,6 hPa 0,3 l/m 15,8 km/h
W-SW (3 Bft)
- - 5 min 0,000 mm 2,0 UV-I 377 W/m 8,9 C 13,5 C 19,8 km/h
W-SW (3 Bft)
0,00 %
Durchschnitt _ 11,3 C 70 % 1023,6 hPa #1,8 l/m 2,6 km/h (1 Bft) W-SW - #1:20 h #0,000 mm 1,1 UV-I 157 W/m 5,9 C 11,1 C 5,2 km/h (1 Bft) 0,00 %